Temp
-6 -6 -6 -6 -6 -6 -6 -6 -6 -6 -6 -6 -6 -6 -6 -6 -7 -7 -7 -7 -7 -7 -7 -7 -7 -7 -7 -7 -7 -7 -7 -7 -7 -7 -7 -7 -7 -7 -7 -7 -7 -7
-6 -6 -6 -6 -6 -6 -6 -6 -6 -6 -6 -6 -6 -6 -6 -6 -6 -6 -7 -7 -7 -6 -6 -6 -6 -6 -7 -7 -7 -7 -7 -7 -7 -7 -7 -7 -7 -7 -7 -7 -7 -7
-6 -6 -6 -6 -6 -6 -6 -6 -6 -6 -6 -6 -6 -6 -6 -6 -6 -6 -6 -6 -6 -6 -6 -6 -6 -6 -6 -6 -6 -6 -7 -7 -7 -7 -7 -7 -7 -7 -7 -7 -7 -7
-6 -6 -6 -6 -6 -6 -6 -6 -6 -6 -6 -6 -6 -6 -6 -6 -6 -6 -6 -6 -6 -6 -6 -6 -6 -6 -6 -6 -6 -6 -6 -6 -6 -7 -7 -7 -7 -7 -7 -7 -7 -7
-6 -6 -6 -6 -6 -6 -6 -6 -6 -6 -6 -6 -6 -6 -6 -6 -6 -6 -6 -6 -6 -6 -6 -6 -6 -6 -6 -6 -6 -6 -6 -6 -6 -6 -6 -6 -7 -7 -7 -7 -7 -7
-6 -6 -6 -6 -6 -6 -6 -6 -6 -6 -6 -6 -6 -6 -6 -6 -6 -6 -6 -6 -6 -6 -6 -6 -6 -6 -6 -6 -6 -6 -6 -6 -6 -6 -6 -6 -6 -6 -7 -7 -7 -7
-5 -6 -6 -6 -6 -6 -6 -6 -6 -6 -5 -5 -6 -6 -6 -6 -6 -6 -6 -6 -6 -6 -6 -6 -6 -6 -6 -6 -6 -6 -6 -6 -6 -6 -6 -6 -6 -6 -6 -6 -6 -6
-6 -6 -6 -6 -6 -6 -6 -6 -6 -6 -6 -6 -5 -6 -6 -6 -6 -6 -6 -6 -6 -6 -6 -6 -6 -6 -6 -6 -6 -6 -6 -6 -6 -6 -6 -6 -6 -6 -6 -6 -6 -6
-6 -6 -6 -6 -6 -6 -6 -6 -6 -6 -6 -6 -6 -6 -6 -6 -6 -6 -6 -6 -6 -6 -6 -6 -6 -6 -6 -6 -6 -6 -6 -6 -6 -6 -6 -6 -6 -6 -6 -6 -6 -6
-6 -6 -6 -6 -6 -6 -6 -6 -6 -6 -6 -6 -6 -6 -6 -6 -6 -6 -6 -6 -6 -6 -6 -6 -6 -6 -6 -6 -6 -6 -6 -6 -6 -6 -6 -6 -6 -6 -6 -6 -6 -6
-6 -6 -6 -6 -6 -6 -6 -6 -6 -6 -6 -6 -6 -6 -6 -6 -6 -6 -6 -6 -6 -6 -6 -6 -6 -6 -6 -6 -6 -6 -6 -6 -6 -6 -6 -6 -6 -6 -6 -6 -6 -6
-6 -6 -6 -6 -6 -6 -6 -6 -6 -6 -7 -7 -7 -7 -7 -7 -7 -6 -6 -6 -6 -6 -6 -6 -6 -6 -6 -6 -6 -6 -6 -6 -6 -6 -6 -6 -6 -6 -6 -6 -6 -6
-6 -6 -6 -6 -6 -6 -6 -6 -7 -7 -7 -7 -7 -7 -7 -7 -7 -7 -7 -6 -6 -6 -6 -6 -6 -6 -6 -6 -6 -6 -6 -6 -6 -6 -6 -6 -6 -6 -6 -6 -6 -6
-6 -6 -6 -7 -7 -6 -6 -7 -7 -7 -6 -6 -6 -6 -7 -7 -7 -7 -7 -7 -7 -7 -6 -6 -6 -6 -6 -6 -6 -6 -6 -6 -6 -6 -6 -6 -6 -6 -6 -6 -6 -6
-6 -6 -7 -7 -7 -7 -6 -6 -6 -6 -6 -6 -6 -6 -6 -6 -6 -6 -6 -6 -6 -6 -6 -7 -7 -6 -6 -6 -6 -6 -6 -6 -6 -6 -6 -6 -6 -6 -6 -6 -6 -6
-7 -7 -7 -7 -7 -7 -7 -7 -6 -7 -7 -6 -6 -6 -6 -6 -6 -6 -6 -6 -6 -6 -6 -6 -6 -6 -6 -6 -6 -6 -6 -6 -6 -6 -6 -6 -6 -6 -6 -6 -6 -6
-7 -7 -7 -7 -7 -7 -7 -7 -7 -7 -7 -7 -7 -7 -6 -6 -6 -6 -6 -6 -6 -6 -6 -6 -6 -6 -6 -6 -6 -6 -6 -6 -6 -6 -6 -6 -5 -5 -5 -5 -5 -5
-7 -7 -7 -7 -7 -7 -8 -7 -7 -7 -7 -7 -7 -7 -7 -7 -6 -6 -6 -6 -7 -7 -6 -6 -6 -6 -6 -6 -6 -5 -5 -6 -6 -6 -6 -6 -6 -6 -6 -6 -6 -6
-7 -7 -7 -7 -7 -8 -8 -8 -7 -7 -7 -7 -7 -8 -8 -7 -7 -6 -6 -6 -6 -7 -7 -7 -6 -6 -6 -6 -6 -6 -5 -5 -5 -5 -6 -6 -6 -6 -6 -6 -6 -6
-7 -7 -7 -7 -7 -8 -8 -8 -7 -7 -7 -8 -7 -7 -7 -7 -7 -7 -7 -6 -6 -6 -7 -7 -7 -6 -6 -6 -7 -6 -6 -6 -5 -5 -5 -5 -5 -5 -5 -5 -5 -5
-7 -7 -7 -7 -8 -8 -8 -7 -7 -7 -8 -8 -8 -7 -7 -7 -7 -7 -7 -7 -7 -6 -6 -7 -7 -7 -7 -7 -7 -6 -6 -6 -6 -6 -6 -5 -5 -5 -5 -5 -5 -5
-7 -7 -7 -7 -8 -8 -8 -7 -7 -8 -7 -8 -8 -8 -8 -8 -8 -8 -8 -8 -7 -7 -6 -7 -7 -7 -7 -7 -7 -6 -6 -6 -6 -6 -6 -6 -6 -6 -6 -6 -6 -6
-7 -8 -8 -8 -8 -8 -8 -8 -7 -7 -7 -8 -8 -7 -8 -8 -8 -8 -8 -8 -7 -7 -7 -7 -7 -7 -7 -7 -7 -7 -6 -6 -6 -6 -6 -6 -6 -6 -6 -6 -6 -5
-7 -8 -8 -8 -8 -8 -8 -8 -8 -8 -8 -7 -7 -7 -7 -7 -8 -8 -8 -8 -7 -7 -7 -7 -7 -7 -7 -7 -7 -7 -7 -7 -7 -7 -7 -6 -6 -6 -6 -6 -6 -6
-8 -8 -8 -8 -8 -9 -8 -8 -8 -8 -8 -8 -7 -7 -7 -7 -7 -8 -8 -8 -7 -7 -7 -7 -8 -8 -8 -8 -7 -7 -7 -7 -7 -7 -7 -6 -6 -6 -6 -6 -6 -6
-8 -8 -8 -9 -9 -9 -9 -9 -8 -8 -8 -8 -8 -8 -7 -7 -7 -8 -8 -7 -7 -7 -7 -7 -8 -8 -8 -8 -8 -8 -7 -7 -7 -7 -7 -7 -7 -7 -6 -6 -6 -6
Height
5941 5942 5943 5944 5944 5945 5945 5946 5947 5948 5949 5950 5951 5951 5952 5953 5954 5955 5955 5956 5957 5958 5958 5959 5960 5960 5961 5961 5961 5962 5962 5962 5963 5963 5964 5964 5964 5965 5965 5966 5966 5966
5941 5941 5942 5943 5943 5944 5945 5946 5947 5948 5948 5949 5950 5951 5952 5953 5953 5954 5955 5956 5957 5957 5958 5959 5959 5960 5961 5961 5961 5961 5962 5962 5963 5963 5963 5964 5964 5965 5965 5966 5966 5966
5940 5941 5941 5942 5942 5943 5944 5945 5946 5947 5948 5949 5950 5951 5952 5953 5953 5954 5955 5955 5956 5957 5958 5958 5959 5960 5960 5960 5961 5961 5961 5962 5962 5963 5963 5963 5964 5964 5965 5966 5966 5966
5939 5940 5941 5942 5942 5943 5944 5944 5945 5946 5948 5949 5949 5950 5952 5953 5953 5954 5955 5955 5956 5957 5957 5958 5959 5959 5960 5960 5960 5961 5961 5961 5962 5962 5963 5963 5964 5964 5965 5965 5966 5966
5938 5939 5940 5941 5942 5943 5943 5944 5945 5946 5947 5948 5949 5950 5951 5952 5953 5954 5955 5956 5956 5957 5958 5958 5959 5959 5959 5960 5960 5960 5961 5961 5962 5962 5962 5963 5963 5964 5965 5965 5966 5966
5937 5938 5939 5940 5941 5942 5943 5944 5945 5946 5946 5947 5948 5949 5950 5951 5952 5954 5955 5955 5956 5957 5958 5959 5959 5960 5960 5960 5960 5961 5961 5961 5962 5962 5962 5963 5963 5964 5964 5965 5965 5966
5936 5937 5938 5939 5940 5941 5943 5944 5945 5946 5946 5947 5948 5949 5950 5950 5951 5953 5954 5954 5955 5957 5958 5959 5960 5960 5961 5961 5961 5961 5962 5962 5962 5962 5963 5963 5964 5964 5964 5965 5965 5965
5935 5937 5938 5939 5940 5941 5942 5943 5944 5945 5946 5947 5948 5948 5949 5950 5951 5952 5953 5953 5954 5955 5957 5958 5959 5960 5961 5961 5962 5962 5962 5963 5963 5963 5963 5964 5964 5964 5964 5965 5965 5965
5934 5936 5937 5939 5939 5940 5941 5942 5944 5945 5946 5947 5948 5948 5949 5950 5950 5951 5952 5952 5953 5954 5955 5956 5957 5959 5960 5961 5961 5962 5963 5963 5963 5964 5964 5964 5965 5965 5965 5965 5964 5965
5932 5933 5935 5937 5938 5940 5941 5942 5943 5944 5945 5946 5947 5948 5949 5949 5950 5950 5951 5952 5952 5953 5954 5954 5955 5957 5958 5959 5960 5961 5962 5962 5963 5963 5963 5964 5964 5965 5965 5965 5964 5964
5930 5931 5933 5934 5936 5938 5940 5941 5942 5943 5944 5945 5946 5947 5948 5948 5949 5950 5950 5951 5952 5952 5953 5954 5954 5955 5956 5957 5958 5959 5959 5960 5961 5961 5962 5962 5963 5963 5964 5964 5964 5964
5929 5929 5931 5932 5934 5936 5937 5939 5940 5941 5942 5943 5944 5945 5946 5946 5947 5947 5948 5949 5950 5951 5952 5953 5953 5953 5954 5954 5955 5956 5957 5957 5958 5959 5959 5960 5961 5961 5962 5963 5963 5963
5926 5927 5928 5929 5931 5933 5934 5935 5936 5938 5939 5940 5941 5942 5943 5943 5944 5944 5945 5946 5948 5949 5950 5951 5952 5952 5952 5953 5953 5954 5954 5955 5956 5956 5957 5958 5958 5959 5960 5960 5961 5961
5923 5924 5925 5926 5928 5929 5931 5931 5932 5933 5935 5936 5937 5939 5940 5940 5941 5941 5942 5943 5945 5946 5947 5948 5949 5950 5951 5951 5951 5952 5953 5953 5954 5954 5955 5955 5956 5957 5957 5957 5958 5958
5920 5921 5922 5923 5924 5926 5927 5928 5929 5930 5932 5934 5935 5936 5937 5938 5939 5939 5940 5941 5941 5942 5943 5944 5946 5947 5948 5949 5950 5950 5951 5952 5952 5953 5953 5954 5954 5955 5955 5955 5955 5956
5917 5919 5920 5921 5922 5924 5926 5929 5930 5931 5932 5934 5935 5936 5937 5937 5937 5937 5938 5939 5939 5940 5941 5942 5942 5943 5944 5946 5947 5948 5949 5950 5950 5951 5952 5952 5953 5953 5953 5953 5954 5954
5914 5916 5917 5918 5920 5922 5925 5928 5929 5930 5931 5932 5933 5935 5936 5937 5937 5936 5936 5937 5938 5938 5939 5940 5940 5941 5942 5943 5944 5945 5946 5947 5948 5949 5949 5950 5951 5951 5952 5952 5952 5952
5911 5912 5914 5916 5918 5920 5922 5923 5924 5926 5928 5928 5928 5929 5932 5934 5936 5936 5935 5935 5935 5936 5937 5938 5938 5939 5940 5941 5942 5943 5944 5944 5945 5946 5947 5948 5949 5949 5950 5950 5951 5951
5908 5909 5911 5913 5916 5917 5918 5919 5920 5922 5924 5925 5925 5924 5926 5929 5931 5932 5933 5933 5933 5933 5934 5935 5935 5936 5938 5939 5940 5941 5942 5943 5944 5944 5945 5945 5946 5947 5948 5948 5949 5949
5905 5906 5909 5911 5912 5914 5915 5916 5917 5919 5921 5923 5923 5923 5923 5924 5926 5928 5929 5930 5930 5931 5932 5932 5933 5934 5935 5936 5937 5939 5940 5942 5943 5943 5943 5943 5943 5944 5945 5946 5946 5947
5902 5904 5906 5908 5909 5910 5911 5912 5914 5916 5917 5919 5921 5921 5921 5922 5923 5925 5926 5927 5928 5927 5928 5930 5930 5931 5932 5933 5934 5935 5937 5938 5940 5941 5942 5942 5942 5942 5942 5942 5943 5945
5900 5901 5902 5904 5906 5907 5908 5909 5910 5912 5913 5915 5917 5918 5919 5919 5921 5922 5924 5925 5925 5924 5924 5926 5927 5928 5929 5930 5931 5932 5933 5934 5936 5937 5939 5939 5939 5939 5939 5939 5940 5941
5897 5898 5899 5901 5903 5904 5906 5907 5908 5909 5910 5912 5913 5914 5915 5916 5917 5919 5921 5923 5923 5922 5921 5922 5923 5924 5926 5927 5928 5929 5930 5932 5933 5934 5936 5937 5937 5937 5937 5937 5937 5938
5894 5894 5896 5898 5900 5901 5903 5905 5906 5907 5907 5908 5909 5910 5911 5912 5913 5916 5918 5919 5921 5920 5919 5919 5920 5921 5923 5924 5925 5927 5928 5929 5930 5932 5933 5934 5934 5935 5935 5935 5935 5935
5891 5891 5892 5894 5896 5897 5899 5901 5903 5903 5904 5905 5906 5907 5908 5909 5910 5912 5914 5916 5917 5917 5917 5917 5918 5919 5920 5921 5922 5923 5924 5925 5927 5928 5929 5930 5931 5931 5932 5932 5932 5932
5888 5889 5890 5891 5892 5893 5894 5896 5898 5900 5901 5902 5903 5904 5904 5905 5907 5909 5910 5911 5912 5912 5912 5913 5914 5915 5916 5917 5918 5919 5920 5922 5923 5924 5925 5927 5928 5928 5929 5929 5928 5928
Wind_Speed
13 12 12 12 12 14 15 15 15 15 15 15 15 15 15 15 15 15 14 14 14 14 14 13 13 13 13 13 13 13 13 13 13 12 12 11 11 12 11 11 11 11
14 13 12 12 12 13 14 15 15 15 15 14 14 14 14 15 15 14 14 14 14 13 13 13 13 12 12 12 12 12 12 12 12 11 11 11 11 11 11 11 11 11
14 14 13 13 12 12 12 13 14 15 15 14 14 14 14 14 14 14 14 13 13 13 12 12 12 12 11 11 11 11 11 11 11 11 11 11 11 11 11 11 11 11
14 14 14 13 13 12 12 12 13 14 15 14 14 13 13 13 12 12 12 12 12 12 12 12 11 11 11 11 11 10 10 10 10 10 10 10 11 11 11 11 11 11
14 14 14 14 14 13 13 12 12 13 13 14 14 14 13 12 12 12 12 11 11 11 11 11 11 11 11 11 10 10 10 10 9 9 10 10 10 11 11 11 11 12
15 15 15 15 15 15 15 14 13 13 13 13 14 14 14 13 13 12 12 11 10 10 10 10 10 11 11 11 10 10 10 10 10 9 9 10 10 11 11 12 12 13
15 16 16 16 16 16 16 15 14 14 13 13 13 14 14 14 14 13 13 12 11 10 10 9 9 10 10 11 11 11 10 10 10 10 10 10 10 10 11 11 12 12
15 15 15 16 17 17 17 16 16 15 14 14 13 14 14 14 14 13 13 13 12 11 11 10 10 10 10 11 11 11 11 11 11 11 10 10 10 10 10 10 11 11
17 15 14 15 16 17 17 17 17 17 16 15 14 13 13 13 13 13 13 12 12 12 11 11 11 11 11 12 12 12 12 12 12 12 11 11 10 9 9 9 10 10
19 17 16 16 17 17 17 17 17 17 17 17 16 14 14 13 13 13 13 12 12 12 12 11 11 11 12 12 13 13 13 14 14 13 13 12 12 11 11 10 10 10
21 20 19 19 18 18 17 17 16 16 16 16 16 16 15 15 14 14 13 13 13 13 12 12 12 11 12 12 13 13 14 15 15 15 15 14 14 13 13 13 12 11
23 22 21 21 20 19 18 18 17 17 17 17 17 17 16 16 16 16 15 15 14 14 13 13 13 13 12 13 13 14 15 15 16 16 16 16 15 15 15 15 14 13
25 25 24 23 22 22 21 20 20 20 20 19 19 19 18 18 18 17 17 16 16 15 15 15 15 14 14 14 14 15 16 16 16 16 16 16 16 16 16 16 16 16
27 26 26 25 25 25 24 24 23 23 23 23 22 21 21 21 21 21 20 18 18 17 17 16 16 16 16 16 16 16 16 16 16 16 16 16 16 17 17 17 17 17
27 27 26 26 27 27 27 27 26 25 24 24 24 23 23 23 23 23 23 22 21 20 19 19 18 18 18 18 17 17 16 16 16 16 17 17 17 17 17 17 18 18
28 27 26 26 26 27 27 27 25 24 23 23 23 24 24 24 24 23 23 23 23 23 22 21 21 21 21 20 19 18 17 16 16 16 17 17 18 18 18 18 18 18
29 28 28 27 26 26 25 24 23 24 24 24 24 24 25 25 25 24 23 22 22 23 22 22 22 22 22 22 21 20 19 18 17 17 17 17 18 19 19 18 18 18
30 30 29 29 27 26 25 25 26 27 27 26 27 27 27 27 27 26 25 23 22 22 22 23 23 23 23 22 23 22 22 21 20 18 18 18 18 19 19 19 19 19
30 30 30 29 28 28 28 28 29 29 29 28 29 28 27 27 28 28 27 25 24 23 23 24 24 24 23 22 23 23 24 23 22 21 20 20 19 20 20 20 20 20
30 30 31 31 30 30 31 31 32 31 29 28 29 30 28 26 27 29 29 28 26 25 24 24 24 25 24 23 23 23 24 24 24 24 23 22 22 21 21 21 21 21
30 30 31 32 31 31 31 32 32 32 30 29 30 32 30 27 27 28 30 30 29 27 26 24 24 25 25 25 24 24 23 23 23 24 24 24 23 23 22 22 22 22
25 26 28 28 28 28 29 31 31 31 30 29 30 31 31 29 28 29 30 31 30 29 27 25 25 25 25 26 25 24 23 23 23 24 24 25 25 24 24 23 23 22
22 22 21 19 18 18 20 23 25 28 29 28 27 29 29 28 29 30 30 30 30 29 28 27 26 26 26 27 26 25 24 23 23 24 25 26 26 26 26 25 25 25
26 26 23 19 17 15 16 16 18 21 25 26 27 27 26 26 27 29 30 30 30 29 28 27 28 27 27 28 27 27 26 25 24 24 25 26 28 28 28 27 26 26
26 28 28 26 23 21 19 18 18 19 21 23 24 25 25 25 25 27 28 28 29 29 27 27 29 29 29 29 30 30 29 28 27 26 26 28 28 29 29 29 28 28
25 26 27 27 27 26 25 24 23 22 21 21 21 23 24 24 24 27 28 27 28 28 27 28 29 30 31 32 32 33 33 32 30 29 29 29 29 30 30 30 30 30
Wind_Direction
195 195 194 192 189 184 179 176 174 172 172 172 170 170 171 171 172 174 175 176 176 176 175 176 176 176 176 175 176 177 178 178 178 179 178 176 175 174 171 168 166 165
198 199 198 198 198 192 184 181 181 179 178 176 173 175 178 177 175 175 177 177 178 178 178 178 177 177 178 179 179 180 182 183 183 183 182 181 181 180 177 175 174 172
203 204 204 204 204 202 196 190 189 188 187 183 179 179 183 183 180 179 181 181 181 181 182 182 182 181 181 183 184 184 186 187 187 188 187 186 187 186 185 184 182 179
208 208 210 211 210 209 208 204 199 196 194 191 188 187 189 188 187 187 187 187 186 186 187 188 189 189 189 190 191 190 191 192 193 195 194 193 194 194 193 193 192 190
212 211 212 215 216 216 216 214 211 207 202 200 197 197 197 196 195 195 197 196 194 195 196 195 194 196 198 199 199 198 197 199 201 202 203 203 202 201 201 201 201 203
212 214 214 215 218 221 221 221 220 217 212 208 205 204 204 203 203 204 206 207 207 207 209 208 204 205 207 208 208 207 205 204 206 208 209 210 210 208 208 207 207 209
213 213 215 216 218 222 224 225 226 226 222 217 212 210 210 209 210 210 211 214 216 217 221 223 221 221 221 220 218 217 215 213 214 215 215 214 215 214 214 213 214 215
221 219 220 221 221 223 225 227 229 230 229 227 222 217 216 216 216 216 216 218 221 222 226 230 233 236 237 236 234 232 229 226 224 225 225 223 221 219 218 218 219 220
222 223 225 228 229 228 227 228 231 232 233 232 230 225 223 222 223 224 223 224 226 227 229 233 236 240 243 245 245 244 242 240 237 235 235 236 235 231 228 226 225 225
220 220 221 224 229 232 232 232 233 235 236 236 233 231 228 226 226 229 231 230 231 232 233 235 238 241 244 246 246 246 245 245 245 244 243 242 243 243 241 238 234 232
219 219 220 221 223 226 229 233 234 236 238 238 236 233 230 227 226 228 231 234 236 237 238 239 239 239 242 244 245 244 243 244 245 246 246 245 245 246 248 247 245 241
220 218 220 222 223 223 223 224 228 231 232 233 232 230 227 226 226 225 227 230 233 236 238 240 241 240 238 239 240 242 243 243 244 244 245 245 244 245 246 248 249 247
225 220 219 220 222 224 222 220 221 225 228 228 227 225 222 221 221 222 223 224 226 230 233 236 239 240 239 237 236 238 241 242 244 244 244 244 244 244 244 244 246 247
227 224 221 220 220 221 220 218 218 220 224 226 226 225 224 221 220 219 219 219 220 223 225 229 234 237 239 239 238 237 238 239 241 243 244 245 244 244 242 242 242 244
227 224 222 222 222 222 221 219 218 220 224 227 228 228 227 225 224 223 221 219 219 219 220 222 226 230 233 237 239 239 238 237 239 240 243 245 246 245 244 242 242 242
225 223 221 222 223 224 225 225 224 225 228 232 234 235 233 230 228 227 227 226 225 223 222 222 224 226 228 230 233 236 236 236 237 239 242 245 246 247 246 245 243 243
225 222 220 222 224 222 223 226 229 231 232 233 235 239 241 239 234 230 227 228 230 230 228 227 228 230 231 232 232 231 231 232 234 238 242 244 246 247 248 248 247 246
230 227 223 222 223 221 220 223 227 230 233 233 232 232 237 241 242 237 230 226 227 232 233 232 232 234 236 238 238 237 234 231 229 232 236 240 243 246 248 249 249 248
232 230 226 224 225 227 229 231 229 228 231 233 229 225 226 233 239 243 240 233 227 228 232 234 235 236 237 239 242 244 245 242 238 234 232 234 238 242 245 247 247 248
230 230 228 229 231 234 238 238 234 231 232 233 229 223 223 227 234 240 244 243 236 231 230 233 236 238 238 238 240 243 247 250 250 246 241 237 237 240 243 247 249 250
228 230 230 231 234 236 238 238 236 232 231 233 232 229 228 232 237 240 241 241 240 237 233 232 235 239 240 240 240 241 243 246 249 250 248 244 242 241 242 246 250 253
222 222 224 225 228 232 235 235 235 233 231 232 232 232 234 238 243 244 240 235 235 238 238 236 236 238 241 242 243 242 243 244 245 246 246 245 243 241 240 242 246 249
231 226 223 222 224 231 236 237 236 234 233 234 234 234 236 240 243 244 241 234 231 235 239 241 241 241 242 244 246 246 246 246 246 247 247 247 247 245 243 243 245 247
253 251 248 243 241 245 251 252 249 243 238 237 238 239 241 243 242 241 239 238 237 237 238 241 244 246 247 249 250 250 249 249 249 249 249 249 250 250 250 248 248 249
260 261 262 262 262 262 261 260 258 254 247 241 240 241 242 244 242 238 237 240 242 240 239 239 242 246 250 253 254 253 252 252 251 251 251 250 251 252 252 251 249 249
256 259 261 264 267 267 265 263 260 259 256 252 247 243 242 245 244 240 240 243 243 242 240 240 242 246 250 253 254 254 253 253 253 253 253 254 254 254 254 254 253 252